GW0143 Weather Reports


time (UTC)temp
C
wind
direction
speed
KPH
gust
KPH
rain 1hr
cm
rain 24hr
cm
rain mn
cm
humidity
%
barometer
mb
20260503231520 15 281 6.4 12.9 0.00 0.00 0.00 21 1015.9
20260503230520 16 286 11.3 24.1 0.00 0.00 0.00 20 1015.9
20260503225521 15 9 6.4 9.7 0.00 0.00 0.00 20 1016.1
20260503224521 15 10 6.4 12.9 0.00 0.00 0.00 20 1016.1
20260503223520 15 22 6.4 12.9 0.00 0.00 0.00 20 1016.2
20260503222521 15 332 4.8 9.7 0.00 0.00 0.00 21 1016.3
20260503221521 15 2 6.4 14.5 0.00 0.00 0.00 20 1016.4
20260503220542 15 49 8.0 14.5 0.00 0.00 0.00 19 1016.6
20260503215522 15 1 6.4 12.9 0.00 0.00 0.00 19 1016.7
20260503214522 15 324 6.4 16.1 0.00 0.00 0.00 20 1016.8
20260503213539 15 311 8.0 19.3 0.00 0.00 0.00 20 1017.0
20260503212522 15 18 9.7 16.1 0.00 0.00 0.00 18 1017.1
20260503211519 16 295 8.0 17.7 0.00 0.00 0.00 17 1017.3
20260503210516 16 20 11.3 19.3 0.00 0.00 0.00 17 1017.5
20260503205522 16 344 6.4 12.9 0.00 0.00 0.00 18 1017.7
20260503204523 15 11 3.2 11.3 0.00 0.00 0.00 18 1017.9
20260503203519 16 357 12.9 22.5 0.00 0.00 0.00 18 1018.1
20260503202523 15 0 9.7 16.1 0.00 0.00 0.00 19 1018.3
20260503201523 15 342 6.4 14.5 0.00 0.00 0.00 20 1018.5
20260503200517 15 9 11.3 17.7 0.00 0.00 0.00 21 1018.6
20260503195517 15 314 9.7 20.9 0.00 0.00 0.00 20 1018.8
20260503194517 15 320 8.0 14.5 0.00 0.00 0.00 18 1018.8
20260503193518 15 355 8.0 14.5 0.00 0.00 0.00 19 1018.9
20260503192524 15 316 8.0 16.1 0.00 0.00 0.00 18 1019.1
20260503191539 15 298 6.4 14.5 0.00 0.00 0.00 18 1019.2
20260503190518 14 205 9.7 14.5 0.00 0.00 0.00 20 1019.4
20260503185518 14 272 14.5 25.7 0.00 0.00 0.00 20 1019.5
20260503184518 13 289 11.3 22.5 0.00 0.00 0.00 21 1019.8
20260503183520 13 297 8.0 14.5 0.00 0.00 0.00 22 1020.0
20260503182519 13 278 9.7 20.9 0.00 0.00 0.00 23 1020.1
20260503181539 13 41 4.8 11.3 0.00 0.00 0.00 23 1020.4
20260503180519 13 32 8.0 14.5 0.00 0.00 0.00 23 1020.5
20260503175519 13 341 6.4 12.9 0.00 0.00 0.00 24 1020.6
20260503174528 12 327 3.2 8.0 0.00 0.00 0.00 24 1020.7
20260503173520 12 298 6.4 12.9 0.00 0.00 0.00 24 1020.8
20260503172528 12 335 3.2 6.4 0.00 0.00 0.00 24 1021.0
20260503171529 12 10 3.2 6.4 0.00 0.00 0.00 25 1021.0
20260503170520 12 52 4.8 11.3 0.00 0.00 0.00 25 1021.0
20260503150522 10 148 6.4 11.3 0.00 0.00 0.00 34 1022.0
20260503130517 4 86 6.4 9.7 0.00 0.00 0.00 48 1021.9
20260503110519 2 138 9.7 14.5 0.00 0.00 0.00 50 1021.5
20260503081518 3 149 12.9 16.1 0.00 0.00 0.00 49 1021.7
20260503080518 3 147 11.3 14.5 0.00 0.00 0.00 49 1021.7
20260503072519 3 147 9.7 12.9 0.00 0.00 0.00 49 1022.0
20260503071519 3 149 9.7 12.9 0.00 0.00 0.00 53 1022.1
20260503070539 3 161 9.7 12.9 0.00 0.00 0.00 50 1022.1
20260503054521 3 157 12.9 16.1 0.00 0.00 0.00 58 1022.1
20260503053521 3 153 11.3 14.5 0.00 0.00 0.00 60 1022.1
20260503052521 3 156 11.3 14.5 0.00 0.00 0.00 59 1022.2
20260503051521 3 157 11.3 12.9 0.00 0.00 0.00 58 1022.1
20260503050521 3 158 9.7 11.3 0.00 0.00 0.00 57 1022.2
20260503045522 3 164 9.7 12.9 0.00 0.00 0.00 56 1022.2
20260503044522 3 164 9.7 14.5 0.00 0.00 0.00 57 1022.3
20260503043522 3 183 9.7 14.5 0.00 0.00 0.00 56 1022.3
20260503042522 4 167 11.3 14.5 0.00 0.00 0.00 54 1022.3
20260503041539 4 186 11.3 17.7 0.00 0.00 0.00 52 1022.3
20260503040522 3 191 11.3 14.5 0.00 0.00 0.00 54 1022.4
20260503035517 4 185 6.4 9.7 0.00 0.00 0.00 56 1022.4
20260503034517 5 152 9.7 12.9 0.00 0.00 0.00 51 1022.2
20260503033517 4 169 11.3 14.5 0.00 0.00 0.00 50 1022.4
20260503032604 4 153 11.3 12.9 0.00 0.00 0.00 50 1022.3
20260503031521 3 156 11.3 16.1 0.00 0.00 0.00 52 1022.4
20260503030517 4 156 9.7 12.9 0.00 0.00 0.00 49 1022.2
20260503025518 4 155 11.3 14.5 0.00 0.00 0.00 49 1022.1
20260503024518 4 157 9.7 11.3 0.00 0.00 0.00 49 1022.0
20260503023518 4 160 8.0 11.3 0.00 0.00 0.00 52 1021.9
20260503022519 5 161 8.0 9.7 0.00 0.00 0.00 52 1021.8
20260503021519 6 173 8.0 9.7 0.00 0.00 0.00 47 1021.7
20260503020519 6 167 8.0 9.7 0.00 0.00 0.00 46 1021.6
20260503015519 8 172 6.4 9.7 0.00 0.00 0.00 42 1021.4
20260503014530 10 189 6.4 6.4 0.00 0.00 0.00 37 1021.4
20260503013530 11 191 3.2 4.8 0.00 0.00 0.00 30 1021.3
20260503012530 12 169 4.8 4.8 0.00 0.00 0.00 25 1021.3
20260503011530 12 206 6.4 8.0 0.00 0.00 0.00 25 1021.2
20260503010517 13 251 4.8 6.4 0.00 0.00 0.00 23 1021.2
20260503005517 13 6 3.2 4.8 0.00 0.00 0.00 20 1021.2
20260503004520 13 190 4.8 8.0 0.00 0.00 0.00 23 1021.3
20260503003520 13 242 8.0 16.1 0.00 0.00 0.00 23 1021.3
20260503002521 13 225 6.4 11.3 0.00 0.00 0.00 23 1021.3
20260503001518 13 157 4.8 8.0 0.00 0.00 0.00 22 1021.3
20260503000518 13 48 3.2 6.4 0.00 0.00 0.00 21 1021.4
20260502235541 13 12 6.4 9.7 0.00 0.00 0.00 21 1021.5
20260502234521 13 359 4.8 9.7 0.00 0.00 0.00 20 1021.6
20260502233519 13 108 3.2 6.4 0.00 0.00 0.00 20 1021.6
20260502232522 12 175 8.0 12.9 0.00 0.00 0.00 23 1021.6